Regen radar Meer informatie rain snow radar


Bezoek onze andere website:

Template documentation
and downloads

And another site



Weather Underground Historische gegevens

Dagelijkse Samenvatting december 14, 2018 Eenheden:  Metrisch    Engels   Beide
« Vorige Dag
Volgende Dag »
Dagelijkse Wekelijkse Maandelijkse Jaarlijkse Aangepaste
  Huidig: Hoog: Laag: Gemiddeld:
Temperatuur: -17.6 °C -17.8 °C -18.1 °C -17.7 °C
Dauwpunt: -18.2 °C -17.8 °C -18.7 °C -18.3 °C
Vochtigheid: 92 % Humidity % 90 % 92 %
Wind snelheid: 7.6 km/h 0 km/h 0 km/h 8.2 km/h
Windvlaag: 15.6 km/h 0 km/h - -
Wind:NE - - ENE
Luchtdruk: 34611.7 hPa 0 hPa 34577.8 hPa -
Neerslag: 0 mm      
Historical Graphs
 
 
Tabel voor december 14, 2018
Tijd Temperatuur Dauwpunt Luchtdruk Wind Wind snelheid Windvlaag Vochtigheid Regenval per uur
-17.8 °C -17.8 °C 0 hPa Calm     Humidity % 0 mm
00:04 -17.4 °C -18.2 °C 34591.4 hPa ENE 12.7 km/h 18.2 km/h 91 % 0 mm
00:09 -17.4 °C -18.2 °C 34591.4 hPa NE 15.6 km/h 23.3 km/h 91 % 0 mm
00:14 -17.4 °C -18.1 °C 34591.4 hPa NE 17.9 km/h 18.2 km/h 91 % 0 mm
00:19 -17.4 °C -18.2 °C 34591.4 hPa ESE 5.1 km/h 18.2 km/h 91 % 0 mm
00:24 -17.4 °C -18.1 °C 34591.4 hPa ENE 7.6 km/h 28.5 km/h 91 % 0 mm
00:29 -17.4 °C -18.1 °C 34591.4 hPa NE 20.9 km/h 23.3 km/h 91 % 0 mm
00:34 -17.4 °C -18.1 °C 34591.4 hPa NE 10.3 km/h 18.2 km/h 91 % 0 mm
00:39 -17.4 °C -18.1 °C 34591.4 hPa ENE 7.6 km/h 15.6 km/h 91 % 0 mm
00:44 -17.4 °C -18.3 °C 34591.4 hPa ENE 15.6 km/h 15.6 km/h 90 % 0 mm
00:49 -17.4 °C -18.2 °C 34591.4 hPa ENE 10.3 km/h 15.6 km/h 91 % 0 mm
00:54 -17.4 °C -18.2 °C 34591.4 hPa NE 10.3 km/h 10.3 km/h 91 % 0 mm
00:59 -17.4 °C -18.2 °C 34591.4 hPa NE 5.1 km/h 23.3 km/h 91 % 0 mm
01:04 -17.4 °C -18.2 °C 34577.8 hPa NE 7.6 km/h 28.5 km/h 91 % 0 mm
01:09 -17.4 °C -18.2 °C 34577.8 hPa NE 2.3 km/h 15.6 km/h 91 % 0 mm
01:14 -17.6 °C -18.3 °C 34577.8 hPa NE 7.6 km/h 12.9 km/h 90 % 0 mm
01:19 -17.6 °C -18.3 °C 34577.8 hPa ENE 10.3 km/h 10.3 km/h 91 % 0 mm
01:24 -17.6 °C -18.3 °C 34577.8 hPa NE 7.6 km/h 12.9 km/h 91 % 0 mm
01:29 -17.7 °C -18.4 °C 34591.4 hPa ENE 12.7 km/h 12.9 km/h 91 % 0 mm
01:34 -17.7 °C -18.4 °C 34591.4 hPa ENE 5.1 km/h 10.3 km/h 91 % 0 mm
01:39 -17.8 °C -18.4 °C 34591.4 hPa ENE 2.3 km/h 10.3 km/h 92 % 0 mm
01:44 -17.8 °C -18.4 °C 34591.4 hPa ENE 5.1 km/h 7.7 km/h 92 % 0 mm
01:49 -17.9 °C -18.5 °C 34591.4 hPa NE 2.3 km/h 7.7 km/h 92 % 0 mm
01:54 -17.9 °C -18.5 °C 34591.4 hPa NE 2.3 km/h 5.1 km/h 92 % 0 mm
01:59 -17.9 °C -18.6 °C 34591.4 hPa NNE 10.3 km/h 10.3 km/h 92 % 0 mm
02:04 -17.9 °C -18.5 °C 34601.5 hPa NE 5.1 km/h 10.3 km/h 92 % 0 mm
02:09 -17.9 °C -18.4 °C 34601.5 hPa NE 2.3 km/h 7.7 km/h 93 % 0 mm
02:14 -17.9 °C -18.6 °C 34601.5 hPa NNE 5.1 km/h 7.7 km/h 92 % 0 mm
02:19 -17.9 °C -18.5 °C 34601.5 hPa NE 2.3 km/h 7.7 km/h 93 % 0 mm
02:24 -17.9 °C -18.5 °C 34601.5 hPa NE 2.3 km/h 7.7 km/h 93 % 0 mm
02:29 -18 °C -18.6 °C 34601.5 hPa NE 5.1 km/h 7.7 km/h 93 % 0 mm
02:34 -18 °C -18.6 °C 34601.5 hPa NE 5.1 km/h 12.9 km/h 93 % 0 mm
02:39 -18 °C -18.6 °C 34601.5 hPa NE 5.1 km/h 15.6 km/h 93 % 0 mm
02:44 -18 °C -18.6 °C 34601.5 hPa East 7.6 km/h 15.6 km/h 93 % 0 mm
02:49 -18 °C -18.6 °C 34601.5 hPa ENE 7.6 km/h 10.3 km/h 93 % 0 mm
02:54 -18 °C -18.6 °C 34601.5 hPa NE 10.3 km/h 10.3 km/h 93 % 0 mm
02:59 -18 °C -18.6 °C 34601.5 hPa ENE 12.7 km/h 12.9 km/h 93 % 0 mm
03:04 -18 °C -18.6 °C 34601.5 hPa NE 10.3 km/h 10.3 km/h 93 % 0 mm
03:09 -18 °C -18.6 °C 34591.4 hPa East 10.3 km/h 12.9 km/h 93 % 0 mm
03:14 -17.9 °C -18.5 °C 34591.4 hPa ENE 7.6 km/h 15.6 km/h 93 % 0 mm
03:19 -17.9 °C -18.5 °C 34591.4 hPa NE 7.6 km/h 12.9 km/h 93 % 0 mm
03:24 -18 °C -18.6 °C 34591.4 hPa ENE 5.1 km/h 10.3 km/h 93 % 0 mm
03:29 -18 °C -18.6 °C 34591.4 hPa NE 5.1 km/h 12.9 km/h 93 % 0 mm
03:34 -18 °C -18.6 °C 34591.4 hPa NE 7.6 km/h 12.9 km/h 93 % 0 mm
03:39 -17.9 °C -18.5 °C 34591.4 hPa NE 10.3 km/h 15.6 km/h 93 % 0 mm
03:44 -17.9 °C -18.5 °C 34591.4 hPa NE 15.6 km/h 15.6 km/h 93 % 0 mm
03:49 -17.9 °C -18.5 °C 34591.4 hPa NE 5.1 km/h 15.6 km/h 93 % 0 mm
03:54 -17.9 °C -18.5 °C 34591.4 hPa ENE 10.3 km/h 12.9 km/h 93 % 0 mm
03:59 -17.9 °C -18.5 °C 34591.4 hPa Calm   10.3 km/h 93 % 0 mm
04:04 -17.9 °C -18.5 °C 34591.4 hPa NE 2.3 km/h 15.6 km/h 93 % 0 mm
04:09 -17.9 °C -18.5 °C 34601.5 hPa NE 7.6 km/h 15.6 km/h 93 % 0 mm
04:14 -17.9 °C -18.5 °C 34591.4 hPa East 5.1 km/h 10.3 km/h 93 % 0 mm
04:19 -18 °C -18.6 °C 34591.4 hPa NE 2.3 km/h 12.9 km/h 93 % 0 mm
04:24 -18 °C -18.6 °C 34591.4 hPa NE 7.6 km/h 12.9 km/h 93 % 0 mm
04:29 -18.1 °C -18.6 °C 34591.4 hPa NE 2.3 km/h 10.3 km/h 93 % 0 mm
04:34 -18.1 °C -18.7 °C 34591.4 hPa NE 10.3 km/h 10.3 km/h 93 % 0 mm
04:39 -18.1 °C -18.7 °C 34591.4 hPa East 7.6 km/h 10.3 km/h 93 % 0 mm
04:44 -18 °C -18.4 °C 34591.4 hPa NE 15.6 km/h 15.6 km/h 94 % 0 mm
04:49 -18 °C -18.6 °C 34591.4 hPa NE 2.3 km/h 10.3 km/h 93 % 0 mm
04:54 -18 °C -18.4 °C 34591.4 hPa ENE 7.6 km/h 12.9 km/h 94 % 0 mm
04:59 -18 °C -18.4 °C 34591.4 hPa NE 10.3 km/h 10.3 km/h 94 % 0 mm
05:04 -17.9 °C -18.4 °C 34591.4 hPa ENE 7.6 km/h 15.6 km/h 94 % 0 mm
05:09 -17.9 °C -18.4 °C 34591.4 hPa ENE 15.6 km/h 18.2 km/h 94 % 0 mm
05:14 -17.9 °C -18.3 °C 34591.4 hPa NE 10.3 km/h 18.2 km/h 94 % 0 mm
05:19 -17.8 °C -18.3 °C 34591.4 hPa ENE 10.3 km/h 12.9 km/h 94 % 0 mm
05:24 -17.8 °C -18.2 °C 34591.4 hPa NE 12.7 km/h 18.2 km/h 94 % 0 mm
05:29 -17.7 °C -18.2 °C 34591.4 hPa NE 12.7 km/h 18.2 km/h 94 % 0 mm
05:34 -17.7 °C -18.2 °C 34591.4 hPa ENE 17.9 km/h 18.2 km/h 94 % 0 mm
05:39 -17.6 °C -18.1 °C 34591.4 hPa NE 5.1 km/h 20.8 km/h 94 % 0 mm
05:44 -17.6 °C -18.2 °C 34591.4 hPa NE 12.7 km/h 20.8 km/h 93 % 0 mm
05:49 -17.6 °C -18.1 °C 34591.4 hPa ENE 15.6 km/h 18.2 km/h 93 % 0 mm
05:54 -17.6 °C -18.1 °C 34591.4 hPa NE 7.6 km/h 25.9 km/h 93 % 0 mm
05:59 -17.4 °C -18 °C 34591.4 hPa NNE 12.7 km/h 20.8 km/h 93 % 0 mm
06:04 -17.4 °C -18 °C 34591.4 hPa ENE 10.3 km/h 18.2 km/h 93 % 0 mm
06:09 -17.4 °C -18.1 °C 34591.4 hPa East 7.6 km/h 28.5 km/h 92 % 0 mm
06:14 -17.4 °C -18.1 °C 34591.4 hPa ESE 7.6 km/h 15.6 km/h 92 % 0 mm
06:19 -17.4 °C -18.1 °C 34591.4 hPa East 7.6 km/h 20.8 km/h 92 % 0 mm
06:24 -17.4 °C -18.1 °C 34591.4 hPa East 2.3 km/h 23.3 km/h 92 % 0 mm
06:29 -17.5 °C -18.1 °C 34591.4 hPa East 5.1 km/h 18.2 km/h 92 % 0 mm
06:34 -17.6 °C -18.2 °C 34591.4 hPa NE 10.3 km/h 18.2 km/h 92 % 0 mm
06:39 -17.6 °C -18.1 °C 34591.4 hPa East 5.1 km/h 15.6 km/h 93 % 0 mm
06:44 -17.6 °C -18.1 °C 34591.4 hPa NE 10.3 km/h 18.2 km/h 93 % 0 mm
06:49 -17.6 °C -18.1 °C 34601.5 hPa ENE 5.1 km/h 20.8 km/h 93 % 0 mm
06:54 -17.6 °C -18.2 °C 34601.5 hPa NE 7.6 km/h 12.9 km/h 93 % 0 mm
06:59 -17.6 °C -18.1 °C 34601.5 hPa NE 10.3 km/h 23.3 km/h 93 % 0 mm
07:04 -17.6 °C -18.2 °C 34601.5 hPa NE 12.7 km/h 25.9 km/h 92 % 0 mm
07:09 -17.6 °C -18.2 °C 34611.7 hPa East 7.6 km/h 15.6 km/h 92 % 0 mm
07:14 -17.6 °C -18.2 °C 34611.7 hPa East 2.3 km/h 15.6 km/h 92 % 0 mm
07:19 -17.6 °C -18.2 °C 34611.7 hPa NNE 12.7 km/h 15.6 km/h 93 % 0 mm
07:24 -17.6 °C -18.2 °C 34611.7 hPa NE 12.7 km/h 15.6 km/h 93 % 0 mm
07:29 -17.6 °C -18.2 °C 34611.7 hPa NE 7.6 km/h 15.6 km/h 92 % 0 mm
Nieuwerkerk ad IJssel Veldenbuurt
Gegevens verzameld door Weather Underground - 1.75 mb

Script ontwikkeld door  Jim McMurry - jmcmurry@mwt.net Aangepast voor de template door  Wim van der Kuil - Leuven-Template.eu

U vindt ons ook hier:

Het Weer Aktueel

Weather Underground

Apparatuur in gebruik:

Weercomputer
apple

Webleverancier
weservit

apple

weservit